Tracking 28790 objects as of 19-Apr-2024
HD Live streaming from Space Station
objects crossing your sky now

FENGYUN 1C DEB

Track FENGYUN 1C DEB now!
10-day predictions


NORAD ID: 30311
Int'l Code: 1999-025ZY
Perigee: 859.9 km
Apogee: 1,103.4 km
Inclination: 99.1 °
Period: 104.6 minutes
Semi major axis: 7352 km
RCS: 0.043 m2 (small)
Launch date: May 10, 1999
Source: People's Republic of China (PRC)
Launch site: Taiyaun Space Center, China (TSC)

Note: This is SATELLITE DEBRIS
Your satellite tracking list
Your tracking list is empty




NASA's NSSDC Master Catalog

Two Line Element Set (TLE):
1 30311U 99025ZY  24109.80070066  .00000660  00000-0  64302-3 0  9996
2 30311  99.1128 222.7343 0165577 355.9811   4.0001 13.77010961866590
Source of the keplerian elements: AFSPC